Date String (YYYY-MM-DD hh:mm:ss) UTC,Instrument flags,Ambient pressure (hPa),Sample flow (lpm),Bypass flow (lpm),Sample temperature (°C),Ambient temperature (°C),ASC tube jacket temperature (°C),LED temperature (°C),Box temperature (°C),Sample RH (%),Span deviation,Mass concentration (μg/m³),Mass concentration (μg/m³),Mass concentration (μg/m³)
DateTimeUTC,F1_M11,P_M11,Q1_M11,Q2_M11,T1_M11,T2_M11,T3_M11,T4_M11,T5_M11,U1_M11,ZSPAN_M11,X0_M11,X2_M11,X1_M11
2021-12-12 10:00:00,,0819.6,5.02,0.00,22.3,22.1,00.0,31.2,24.1,08.5,0000.0,0010.64,0003.79,0003.12
2021-12-12 10:01:00,,0819.7,4.99,0.00,22.3,22.0,00.0,31.2,24.1,08.6,0000.0,0010.37,0003.65,0002.94
2021-12-12 10:02:00,,0819.9,5.00,0.00,22.3,22.0,00.0,31.2,24.1,08.6,0000.0,0009.97,0003.46,0002.72
2021-12-12 10:03:00,,0819.9,5.00,0.00,22.3,21.9,00.0,31.2,24.1,08.6,0000.0,0009.63,0003.27,0002.47
2021-12-12 10:04:00,,0820.0,5.01,0.00,22.3,21.8,00.0,31.2,24.0,08.6,0000.0,0009.21,0003.07,0002.25
2021-12-12 10:05:00,,0819.9,5.00,0.00,22.3,21.8,00.0,31.2,23.9,08.7,0000.0,0008.03,0002.83,0002.09
2021-12-12 10:06:00,,0819.9,5.00,0.00,22.2,21.7,00.0,31.2,23.9,08.6,0000.0,0007.58,0002.68,0001.95
2021-12-12 10:07:00,,0819.9,5.01,0.00,22.2,21.7,00.0,31.2,23.9,08.5,0000.0,0006.12,0002.63,0001.88
2021-12-12 10:08:00,,0819.9,5.00,0.00,22.2,21.6,00.0,31.2,23.8,08.6,0000.0,0004.91,0002.71,0001.88
2021-12-12 10:09:00,,0819.9,4.99,0.00,22.2,21.5,00.0,31.2,23.8,08.5,0000.0,0005.30,0002.85,0001.99
2021-12-12 10:10:00,,0819.9,5.01,0.00,22.1,21.5,00.0,31.2,23.8,08.5,0000.0,0006.69,0003.07,0002.17
2021-12-12 10:11:00,,0820.0,5.00,0.00,22.1,21.5,00.0,31.2,23.8,08.5,0000.0,0007.91,0003.29,0002.42
2021-12-12 10:12:00,,0820.0,5.00,0.00,22.2,21.5,00.0,31.2,23.9,08.5,0000.0,0008.37,0003.47,0002.66
2021-12-12 10:13:00,,0819.9,5.01,0.00,22.1,21.5,00.0,31.2,23.9,08.3,0000.0,0008.79,0003.65,0002.86
2021-12-12 10:14:00,,0819.9,5.01,0.00,22.2,21.5,00.0,31.2,23.9,08.3,0000.0,0009.23,0003.86,0003.07
2021-12-12 10:15:00,,0819.9,5.00,0.00,22.2,21.6,00.0,31.2,24.0,08.3,0000.0,0009.60,0004.05,0003.21
2021-12-12 10:16:00,,0819.8,5.00,0.00,22.2,21.6,00.0,31.2,24.0,08.3,0000.0,0010.91,0004.18,0003.28
2021-12-12 10:17:00,,0819.7,4.99,0.00,22.2,21.6,00.0,31.2,24.0,08.4,0000.0,0011.89,0004.34,0003.36
2021-12-12 10:18:00,,0819.6,4.99,0.00,22.2,21.6,00.0,31.2,23.9,08.5,0000.0,0012.57,0004.41,0003.40
2021-12-12 10:19:00,,0819.5,5.01,0.00,22.2,21.6,00.0,31.2,24.0,08.7,0000.0,0012.90,0004.39,0003.40
2021-12-12 10:20:00,,0819.7,5.01,0.00,22.2,21.6,00.0,31.2,24.0,08.8,0000.0,0013.81,0004.28,0003.33
2021-12-12 10:21:00,,0819.7,4.99,0.00,22.2,21.6,00.0,31.2,24.0,08.7,0000.0,0013.45,0004.17,0003.26
2021-12-12 10:22:00,,0819.7,5.01,0.00,22.2,21.6,00.0,31.2,24.0,08.5,0000.0,0012.78,0004.13,0003.22
2021-12-12 10:23:00,,0819.6,4.99,0.00,22.2,21.6,00.0,31.2,24.0,08.5,0000.0,0012.97,0004.08,0003.19
2021-12-12 10:24:00,,0819.5,5.01,0.00,22.3,21.7,00.0,31.2,24.0,08.5,0000.0,0013.52,0004.04,0003.17
2021-12-12 10:25:00,,0819.6,5.01,0.00,22.3,21.7,00.0,31.2,24.0,08.5,0000.0,0013.72,0004.04,0003.14
2021-12-12 10:26:00,,0819.7,4.99,0.00,22.3,21.6,00.0,31.2,24.0,08.5,0000.0,0013.76,0004.01,0003.11
2021-12-12 10:27:00,,0819.7,5.00,0.00,22.3,21.6,00.0,31.2,24.0,08.5,0000.0,0012.64,0003.99,0003.09
2021-12-12 10:28:00,,0819.7,4.99,0.00,22.3,21.6,00.0,31.2,24.0,08.4,0000.0,0011.83,0003.95,0003.07
2021-12-12 10:29:00,,0819.8,5.01,0.00,22.3,21.6,00.0,31.2,23.9,08.4,0000.0,0011.71,0004.00,0003.11
2021-12-12 10:30:00,,0819.9,4.99,0.00,22.2,21.6,00.0,31.2,23.9,08.4,0000.0,0011.62,0004.10,0003.17
2021-12-12 10:31:00,,0819.9,5.00,0.00,22.2,21.5,00.0,31.2,23.9,08.4,0000.0,0010.78,0004.23,0003.24
2021-12-12 10:32:00,,0819.7,5.00,0.00,22.2,21.5,00.0,31.2,23.8,08.4,0000.0,0011.15,0004.39,0003.32
2021-12-12 10:33:00,,0819.7,5.01,0.00,22.2,21.5,00.0,31.2,23.9,08.4,0000.0,0011.40,0004.51,0003.37
2021-12-12 10:34:00,,0819.6,4.99,0.00,22.2,21.5,00.0,31.2,23.9,08.4,0000.0,0011.16,0004.58,0003.40
2021-12-12 10:35:00,,0819.5,5.02,0.00,22.2,21.5,00.0,31.2,23.9,08.4,0000.0,0010.54,0004.62,0003.43
2021-12-12 10:36:00,,0819.4,4.99,0.00,22.2,21.5,00.0,31.2,23.9,08.5,0000.0,0010.26,0004.61,0003.45
2021-12-12 10:37:00,,0819.4,5.00,0.00,22.2,21.5,00.0,31.2,23.9,08.5,0003.1,0010.22,0004.62,0003.47
2021-12-12 10:38:00,,0819.4,5.00,0.00,22.2,21.5,00.0,31.2,23.9,08.5,0004.1,0010.76,0004.61,0003.49
2021-12-12 10:39:00,,0819.5,4.99,0.00,22.2,21.6,00.0,31.2,23.9,08.6,0000.0,0010.78,0004.62,0003.50
2021-12-12 10:40:00,,0819.3,5.01,0.00,22.2,21.6,00.0,31.2,23.9,09.4,0000.0,0010.29,0004.50,0003.45
2021-12-12 10:41:00,,0819.4,5.00,0.00,22.2,21.6,00.0,31.2,23.9,10.1,0000.0,0009.52,0004.25,0003.31
2021-12-12 10:42:00,,0819.5,4.99,0.00,22.2,21.5,00.0,31.2,23.9,09.2,0000.0,0009.32,0004.13,0003.24
2021-12-12 10:43:00,,0819.6,4.99,0.00,22.2,21.5,00.0,31.2,23.8,08.9,0000.0,0008.85,0004.04,0003.19
2021-12-12 10:44:00,,0819.7,5.00,0.00,22.1,21.4,00.0,31.2,23.7,08.7,0000.0,0009.12,0003.94,0003.16
2021-12-12 10:45:00,,0819.8,5.00,0.00,22.0,21.2,00.0,31.2,23.5,08.6,0000.0,0009.76,0003.95,0003.15
2021-12-12 10:46:00,,0819.8,4.99,0.00,21.9,21.2,00.0,31.1,23.5,08.6,0000.0,0009.96,0003.99,0003.15
2021-12-12 10:47:00,,0819.9,5.01,0.00,21.9,21.2,00.0,31.1,23.5,08.6,0000.0,0010.20,0004.01,0003.16
2021-12-12 10:48:00,,0819.9,5.00,0.00,21.9,21.2,00.0,31.1,23.5,08.6,0000.0,0010.49,0004.07,0003.16
2021-12-12 10:49:00,,0819.9,4.99,0.00,21.9,21.2,00.0,31.1,23.6,08.6,0000.0,0010.71,0004.10,0003.16
2021-12-12 10:50:00,,0819.9,5.00,0.00,21.9,21.3,00.0,31.1,23.6,08.6,0000.0,0010.95,0004.17,0003.17
2021-12-12 10:51:00,,0819.8,5.01,0.00,22.0,21.3,00.0,31.1,23.7,08.6,0000.7,0011.38,0004.28,0003.22
2021-12-12 10:52:00,,0819.8,4.99,0.00,22.0,21.3,00.0,31.0,23.7,08.6,0001.9,0011.80,0004.49,0003.35
2021-12-12 10:53:00,,0819.7,5.01,0.00,22.0,21.3,00.0,31.0,23.7,08.6,0001.9,0011.93,0004.56,0003.42
2021-12-12 10:54:00,,0819.6,5.00,0.00,22.0,21.4,00.0,31.0,23.7,08.6,0000.4,0011.98,0004.59,0003.45
2021-12-12 10:55:00,,0819.5,4.99,0.00,22.0,21.4,00.0,31.0,23.7,08.7,0001.4,0011.54,0004.65,0003.47
2021-12-12 10:56:00,,0819.6,5.01,0.00,22.0,21.4,00.0,31.0,23.8,08.7,0002.2,0010.98,0004.62,0003.47
2021-12-12 10:57:00,,0819.5,4.99,0.00,22.0,21.4,00.0,31.0,23.8,08.8,0001.0,0010.70,0004.52,0003.45
2021-12-12 10:58:00,,0819.5,5.00,0.00,22.1,21.4,00.0,31.0,23.8,08.8,0001.4,0010.32,0004.43,0003.41
2021-12-12 10:59:00,,0819.5,5.01,0.00,22.1,21.4,00.0,31.0,23.9,08.8,0002.5,0010.40,0004.34,0003.39
